Location: Newark
(45.5000°N, 11.4167°E)
Time: 22:04:46
(UTC+00:00)

Altair - Visible Passes

Search period start: 25 August 2019 00:00
Search period end: 04 September 2019 00:00
Orbit: 1501 x 1683 km, 47.2° (Epoch: 24 August)

Date Brightness Start Highest point End Pass type
(mag) Time Alt. Az. Time Alt. Az. Time Alt. Az.
25 Aug 7.6 02:06:36 33° SW 02:11:39 71° SSE 02:21:06 10° ENE visible
25 Aug 8.7 23:44:40 25° ESE 23:44:40 25° ESE 23:50:28 10° E visible
26 Aug 7.6 01:42:40 41° SW 01:46:30 67° SSE 01:55:56 10° ENE visible
26 Aug 7.7 03:41:28 10° W 03:51:18 82° N 04:00:45 10° E visible
26 Aug 8.9 23:20:43 21° ESE 23:20:43 21° ESE 23:25:07 10° E visible
27 Aug 7.6 01:18:43 49° SSW 01:21:21 64° SSE 01:30:46 10° ENE visible
27 Aug 7.6 03:16:44 12° W 03:26:06 83° N 03:35:34 10° E visible
27 Aug 9.1 22:56:44 17° E 22:56:44 17° E 22:59:43 10° E visible
28 Aug 7.5 00:54:44 56° S 00:56:12 61° SSE 01:05:36 10° ENE visible
28 Aug 7.6 02:52:45 17° W 03:00:53 84° N 03:10:24 10° E visible
28 Aug 9.2 22:32:45 14° E 22:32:45 14° E 22:34:16 10° E visible
29 Aug 7.6 00:30:45 57° SSE 00:31:03 58° SSE 00:40:25 10° ENE visible
29 Aug 7.5 02:28:45 23° W 02:35:40 85° N 02:45:13 10° E visible
29 Aug 9.4 22:08:44 10° E 22:08:44 10° E 22:08:45 10° E visible
30 Aug 7.7 00:06:43 53° SE 00:06:43 53° SE 00:15:15 10° ENE visible
30 Aug 7.5 02:04:44 30° WSW 02:10:27 87° NNW 02:20:03 10° ENE visible
30 Aug 8.0 23:42:42 46° ESE 23:42:42 46° ESE 23:50:04 10° ENE visible
31 Aug 7.5 01:40:43 38° WSW 01:45:15 89° NNW 01:54:52 10° ENE visible
31 Aug 7.6 03:40:34 10° W 03:50:25 84° N 03:59:51 10° E visible
31 Aug 8.2 23:18:40 38° E 23:18:40 38° E 23:24:51 10° ENE visible
01 Sep 7.4 01:16:40 49° WSW 01:20:02 89° SSE 01:29:42 10° ENE visible
01 Sep 7.6 03:15:20 10° W 03:25:13 83° N 03:34:41 10° E visible
01 Sep 8.5 22:54:37 31° E 22:54:37 31° E 22:59:39 10° ENE visible
02 Sep 7.4 00:52:37 61° WSW 00:54:50 87° SSE 01:04:32 10° ENE visible
02 Sep 7.6 02:50:37 12° W 03:00:00 82° N 03:09:30 10° E visible
02 Sep 8.7 22:30:34 25° E 22:30:34 25° E 22:34:25 10° ENE visible
03 Sep 7.4 00:28:35 75° SW 00:29:38 85° SSE 00:39:21 10° ENE visible
03 Sep 7.6 02:26:34 17° W 02:34:47 81° N 02:44:19 10° E visible
03 Sep 9.0 22:06:32 20° E 22:06:32 20° E 22:09:11 10° ENE visible
